Theta_e
300 293 290 293 295 295 293 290 289 292 297 294 293 293 295 297 297 297 297 298 300 301 303 306 305 306 309 316 320 326 323 321 322 321 320 318 319 318 315 319 321 327 325 321
295 291 297 298 297 294 293 289 289 292 295 293 292 292 296 297 297 299 300 300 301 300 302 304 305 304 307 311 318 322 323 320 320 322 321 317 316 314 315 311 313 319 323 321
292 295 299 296 293 293 291 289 289 289 293 293 290 289 292 297 298 300 301 302 303 302 301 302 303 304 305 307 312 318 321 320 321 320 318 311 311 309 303 305 306 307 315 319
294 298 295 293 292 293 288 293 292 291 288 283 291 281 289 294 295 297 300 300 300 301 302 303 303 302 304 305 307 313 317 318 319 317 314 310 309 302 302 303 304 303 307 311
291 292 292 291 293 295 291 294 292 291 287 287 286 283 287 293 291 295 298 299 300 302 302 303 303 303 303 304 304 307 311 313 314 314 311 309 306 303 303 302 299 302 301 304
293 296 295 294 294 295 296 293 291 290 288 280 286 285 284 289 292 295 297 298 301 302 301 301 300 302 302 303 304 305 307 308 309 310 308 307 304 303 303 299 298 299 298 298
292 292 294 295 291 294 292 289 280 280 278 279 288 284 287 293 295 295 297 298 299 299 300 299 297 298 300 300 302 304 304 304 306 307 307 306 304 305 303 299 299 297 295 293
285 283 291 294 293 290 289 289 281 275 278 280 284 281 287 295 297 298 300 298 300 299 301 301 300 298 298 300 301 302 303 303 304 305 305 305 305 306 304 301 299 297 298 297
286 286 294 294 294 295 289 286 291 284 277 277 283 288 293 296 296 298 298 299 299 299 300 300 299 298 298 299 300 301 302 302 303 304 304 303 304 304 302 302 300 298 297 297
290 285 291 291 294 293 291 293 284 285 276 275 280 282 286 292 294 296 297 298 299 299 297 297 297 297 298 299 300 301 301 301 302 303 303 302 302 303 301 300 298 297 295 294
292 289 285 289 288 288 288 287 289 288 284 277 277 282 292 293 295 295 297 298 298 298 297 296 296 297 297 298 299 299 300 300 300 301 301 300 300 300 299 296 295 293 289 288
295 291 282 286 292 293 291 290 290 283 281 282 282 285 294 297 298 298 298 299 297 297 297 296 296 296 296 296 297 298 299 299 300 300 300 299 299 297 295 292 291 287 286 285
295 288 280 284 290 291 288 290 292 291 287 283 280 285 295 296 296 297 297 296 297 296 295 295 295 295 295 295 296 297 298 298 299 299 298 298 296 295 293 290 287 285 284 285
297 288 286 284 288 290 286 289 292 291 285 285 285 289 294 295 296 295 296 295 297 296 296 295 295 295 295 296 296 296 297 298 298 298 297 296 295 294 292 289 286 284 284 284
293 285 287 288 290 290 287 288 290 289 289 286 288 290 294 296 297 299 299 297 297 296 296 295 295 295 295 295 295 296 297 297 297 297 296 296 294 293 290 286 284 283 284 284
292 285 286 284 288 288 286 288 289 289 290 290 290 289 297 298 298 299 301 302 299 297 298 297 296 296 297 296 295 296 297 296 296 296 295 293 291 288 287 285 283 283 282 283
287 285 283 278 285 283 280 283 285 288 291 292 288 293 297 296 297 299 300 300 298 298 299 299 298 298 297 296 296 295 296 294 293 291 290 289 288 287 285 283 282 282 281 282
285 285 285 280 280 274 283 290 292 291 292 294 294 295 292 291 293 297 293 292 293 295 296 297 299 299 299 298 296 296 293 292 290 289 289 288 287 286 285 283 282 281 281 281
290 284 281 274 272 280 284 286 285 284 285 288 289 289 290 291 293 293 294 295 295 295 296 297 296 296 295 295 294 291 290 289 288 289 287 287 286 285 284 283 282 281 280 279
285 286 277 270 268 268 280 285 291 292 280 285 288 288 288 288 284 291 294 294 295 295 294 294 294 292 290 289 287 287 288 287 287 287 287 286 285 284 283 282 280 278 278 279
279 281 278 277 274 275 282 283 288 278 280 284 286 288 289 285 288 292 294 294 295 294 293 293 291 288 287 285 284 284 285 285 286 284 284 284 283 283 282 280 279 279 277 280
279 278 277 279 277 273 283 283 282 284 283 285 286 288 287 288 290 290 292 290 292 293 292 289 286 285 285 284 283 283 283 285 282 281 281 280 280 282 281 280 278 278 279 279
273 279 277 279 277 285 284 284 287 287 285 286 285 286 288 288 288 289 290 290 290 290 290 287 285 284 285 282 282 281 283 282 280 277 276 276 277 279 280 279 278 277 279 279
278 281 274 276 279 281 284 288 285 285 283 284 284 285 287 286 286 286 287 288 287 288 287 282 282 283 284 282 281 281 281 281 278 277 276 276 277 277 275 278 279 278 278 278
278 279 274 275 281 280 282 284 283 282 281 282 283 283 284 284 284 284 285 285 286 286 286 283 283 283 282 280 279 279 280 279 278 276 276 276 276 276 275 277 278 278 278 279
279 277 275 273 280 279 279 281 282 281 281 281 281 282 283 283 283 283 284 284 283 284 286 284 283 282 284 280 279 282 279 279 280 279 278 277 279 277 276 276 277 284 283 284
Wind_Speed
6 4 7 10 11 9 9 4 9 7 7 5 7 12 11 9 10 11 11 10 11 12 9 10 12 13 10 10 11 15 14 13 10 7 6 4 5 4 3 3 5 11 11 13
3 7 9 9 2 2 7 2 8 8 5 3 6 12 18 12 11 17 15 14 13 9 9 10 11 13 14 12 11 13 15 14 12 10 7 4 5 4 4 3 3 4 11 14
8 1 12 9 3 1 6 6 7 7 8 6 6 8 14 8 10 15 16 17 14 13 9 9 11 13 13 13 11 10 13 15 14 11 6 4 5 4 4 3 3 3 7 14
7 9 2 3 6 6 6 3 9 4 3 5 2 8 6 12 16 8 11 11 10 11 10 10 7 9 12 12 8 9 10 12 12 12 10 13 10 6 4 5 3 5 5 9
4 4 8 7 6 7 3 4 3 2 2 6 6 6 8 11 9 13 13 9 9 11 10 8 8 10 7 8 9 8 9 9 9 11 9 8 6 4 4 4 8 8 4 6
2 1 2 4 5 1 8 5 3 2 2 8 8 8 5 8 6 8 6 5 4 7 8 7 7 6 5 6 7 8 9 8 9 11 9 9 9 7 6 6 7 7 5 4
6 9 3 1 7 5 3 5 1 2 1 12 6 5 7 2 3 2 6 2 4 6 6 5 5 2 2 5 6 6 8 8 8 9 9 9 9 9 10 10 8 9 7 5
11 5 12 8 10 10 9 8 8 8 6 7 1 10 7 5 1 3 7 6 8 8 6 7 8 7 5 6 6 6 7 7 8 9 9 8 8 6 8 9 8 8 9 8
6 8 5 6 4 11 6 9 6 4 3 4 6 11 12 6 8 9 10 7 8 7 6 6 8 8 8 7 8 7 7 6 7 8 7 7 7 7 7 9 8 8 8 8
3 5 2 3 4 6 4 3 2 3 3 5 9 8 13 5 8 12 9 10 7 6 7 4 5 5 5 6 6 7 6 7 6 7 6 6 7 6 6 6 7 9 7 10
5 5 0 4 7 9 5 5 5 6 6 6 6 9 5 5 3 4 9 8 5 7 6 6 6 6 6 5 6 7 7 7 7 6 7 7 6 5 6 6 6 6 6 9
3 3 2 8 5 6 5 10 12 5 4 5 5 22 1 9 8 8 8 7 6 5 4 5 5 6 6 6 6 7 7 8 8 7 7 7 7 7 6 6 6 6 6 6
3 1 1 6 3 4 4 4 7 11 4 10 6 21 3 7 8 5 6 5 3 0 2 3 4 4 5 6 6 7 7 7 7 8 8 7 8 8 7 7 7 6 6 6
9 4 7 8 5 4 1 6 5 9 8 18 18 30 17 11 12 3 3 3 3 5 7 4 4 6 7 7 7 7 7 7 7 7 9 9 9 8 7 7 8 8 7 8
7 6 7 10 7 2 6 7 9 9 14 13 25 17 26 9 10 9 9 6 4 3 6 6 8 7 7 7 7 7 7 7 7 8 8 10 7 7 8 8 9 8 9 8
2 2 3 4 7 5 5 10 11 14 17 15 22 26 19 16 9 14 8 14 12 10 9 9 9 7 8 9 9 8 9 9 8 10 11 8 8 8 8 7 8 9 9 9
5 5 4 3 7 2 8 10 15 7 7 11 15 24 12 14 14 12 12 12 13 12 10 8 9 8 7 9 9 8 8 7 9 9 8 8 8 9 10 9 10 10 11 10
6 5 3 1 4 5 5 5 4 9 7 9 12 9 8 6 9 8 9 7 11 14 17 15 13 14 12 8 7 6 6 8 9 9 9 7 9 10 10 11 12 10 10 12
6 3 2 4 5 8 14 5 8 9 3 6 6 8 9 13 7 5 7 5 5 7 10 9 7 8 8 8 9 8 6 6 6 10 7 7 9 10 10 11 10 8 9 8
4 6 5 2 4 7 5 3 4 3 2 1 6 5 9 8 7 4 11 9 10 6 6 11 8 6 7 7 7 7 7 6 8 6 7 6 7 8 9 8 7 4 4 6
6 6 14 10 7 9 3 0 2 3 3 4 4 2 4 2 5 13 13 12 9 6 8 7 7 7 7 6 6 7 6 7 6 5 5 6 7 8 8 8 5 7 6 7
8 9 7 7 8 11 0 3 4 2 1 1 1 3 4 6 8 10 10 9 9 12 10 7 6 7 7 3 1 6 7 7 4 3 5 5 6 5 7 9 6 8 9 9
2 7 7 9 7 6 3 7 4 4 4 3 4 7 6 8 10 11 11 9 9 10 11 8 6 8 8 6 2 2 3 2 2 0 2 3 4 5 6 9 9 8 9 8
1 3 3 6 2 4 5 5 6 5 2 3 4 6 6 8 7 10 12 10 9 11 10 4 6 8 8 4 5 5 3 3 3 1 1 1 4 3 2 4 6 7 7 7
4 4 3 3 6 8 6 5 2 5 5 5 6 5 8 7 10 7 10 10 11 10 10 6 7 8 9 7 5 3 4 4 6 4 2 1 1 3 3 2 5 5 5 8
5 5 4 5 2 1 6 5 7 9 10 7 7 8 7 5 11 8 12 9 7 12 12 11 10 7 9 6 6 4 3 4 5 5 4 2 2 2 2 3 1 10 10 15
Wind_Direction
211 207 197 219 216 243 286 355 311 319 150 175 227 268 265 266 270 268 252 241 238 234 232 210 190 185 184 185 191 188 170 177 174 182 181 158 167 147 130 169 183 175 173 172
125 232 235 234 112 16 320 241 279 294 78 189 265 266 278 256 238 241 249 253 255 256 227 221 193 179 177 192 195 186 180 176 185 188 183 166 145 168 170 145 202 206 168 170
200 140 214 244 184 277 258 245 262 270 325 215 257 269 247 279 239 249 256 256 252 247 244 231 191 179 176 186 189 186 188 181 186 182 164 135 120 92 120 172 191 211 179 168
233 244 155 202 228 185 249 318 234 252 334 260 97 282 288 299 287 237 245 247 241 240 238 223 196 180 180 191 179 182 175 181 189 173 177 183 185 165 183 166 153 173 181 164
205 217 172 199 178 172 203 45 73 115 250 311 190 254 257 221 259 256 251 249 242 227 208 203 181 174 177 163 175 177 178 179 178 183 181 182 181 167 148 146 154 175 175 166
163 258 249 181 50 165 138 90 75 117 176 273 157 214 206 220 232 242 239 268 76 99 84 79 63 88 147 154 163 173 175 184 174 178 183 178 173 180 155 147 169 179 168 166
182 197 131 146 86 29 179 141 227 307 146 243 132 254 235 219 283 310 291 170 122 114 122 150 143 141 176 151 153 157 167 184 177 175 184 178 177 191 177 166 172 166 167 183
198 218 156 192 197 170 193 177 172 198 194 262 35 240 255 214 359 329 281 282 155 180 188 190 173 171 181 162 167 173 183 190 185 176 189 184 186 191 180 173 170 183 190 182
187 228 99 159 157 147 195 214 231 310 61 359 232 272 291 250 221 245 259 259 227 215 172 155 149 156 166 170 182 191 189 209 199 184 183 192 199 196 175 169 167 177 173 171
256 274 336 86 67 307 164 211 126 256 189 222 259 264 245 324 263 239 239 241 222 165 133 138 146 164 176 168 181 176 188 202 228 194 178 194 197 193 175 168 171 170 169 156
177 190 21 122 198 170 168 219 236 169 180 178 274 258 178 210 330 239 227 245 220 154 150 169 177 165 175 161 176 175 192 195 208 201 179 191 199 191 169 159 163 171 147 156
165 95 202 197 169 210 244 225 207 172 245 219 215 263 179 65 28 25 52 67 63 90 140 166 171 170 184 195 190 187 198 198 194 191 181 190 185 176 171 171 169 162 165 157
104 27 15 314 223 109 234 192 222 241 255 238 198 260 89 89 59 53 88 98 123 184 183 167 172 198 213 214 203 202 205 215 202 182 184 190 184 178 182 178 164 161 156 164
91 173 207 227 91 53 69 2 331 266 253 256 243 268 259 324 326 334 241 219 239 204 225 231 225 217 219 220 209 211 214 202 218 194 190 191 188 182 175 164 158 162 164 164
119 209 216 256 265 167 192 215 233 250 262 248 265 274 275 286 315 332 351 320 261 232 234 224 238 233 222 218 230 218 215 204 205 212 203 202 183 177 167 164 160 159 166 174
114 225 156 280 225 211 220 212 216 240 247 246 267 266 293 293 358 21 29 311 328 292 261 256 244 246 228 218 224 207 217 208 187 207 212 190 178 170 173 166 169 166 167 164
136 146 158 245 120 54 280 212 201 185 203 220 238 258 284 286 303 314 322 318 328 346 335 300 260 261 247 233 230 213 217 177 197 210 214 196 176 174 170 162 169 176 174 170
142 147 143 230 75 227 219 344 149 200 210 215 249 283 44 360 315 6 51 9 349 344 340 337 343 348 349 340 297 265 211 206 201 204 207 187 177 181 173 178 185 177 174 180
182 136 156 210 193 294 307 227 192 185 132 355 38 29 16 346 305 121 35 9 316 320 319 315 326 330 330 338 329 307 266 238 206 220 205 192 181 185 183 191 189 181 169 178
214 185 141 140 189 215 261 44 0 92 213 349 77 50 17 352 356 341 344 334 311 304 306 316 318 326 331 321 323 310 283 255 238 228 215 187 175 184 190 187 181 156 163 169
151 205 217 222 245 284 234 107 4 151 232 213 171 112 11 358 258 293 307 303 298 287 295 306 309 296 286 313 329 306 295 263 253 222 196 185 180 180 172 161 154 153 148 150
164 170 186 204 218 248 159 57 147 215 29 141 41 315 305 281 294 299 297 294 304 309 314 311 300 291 288 279 22 308 305 293 259 207 184 177 165 160 160 161 148 156 152 162
231 185 177 173 201 145 37 107 98 82 96 54 327 308 304 312 313 316 304 305 299 289 294 299 281 300 309 293 180 231 262 300 308 330 204 166 145 158 158 157 156 156 162 168
269 141 161 65 145 113 136 156 115 90 56 301 276 274 283 299 295 293 302 300 302 304 291 269 295 299 300 297 294 266 213 159 134 222 244 179 138 136 129 140 164 164 172 176
183 97 168 284 338 3 45 92 21 336 323 309 291 280 282 293 299 283 290 301 308 302 302 287 285 293 286 293 279 238 272 163 146 150 161 211 134 152 144 151 173 175 193 184
173 184 164 217 345 7 277 308 339 327 319 334 326 315 307 310 305 308 295 286 282 296 304 300 289 277 280 264 255 236 206 215 149 148 152 178 173 168 146 138 143 203 197 202